Location: Csohesd
(46.2500°N, 22.6167°E)
Time: 04:08:17
(UTC+00:00)

YAOGAN 1 - Pass Details

Date: 21 October 2021
Orbit: 618 x 620 km, 97.9° (Epoch: 30 November)

Event Time Altitude Azimuth Distance (km) Brightness Sun altitude
Rises 17:50:58 0° 187° (S) 2,883 6.0 -24.6°
Reaches altitude 10° 17:53:18 10° 196° (SSW) 1,982 5.2 -25.0°
Maximum altitude 17:57:15 35° 263° (W) 1,006 4.1 -25.6°
Drops below altitude 10° 18:01:15 10° 330° (NNW) 1,998 5.7 -26.3°
Sets 18:03:37 0° 339° (NNW) 2,909 6.4 -26.7°
